Time,TemperatureF,DewpointF,PressureIn,WindDirection,WindDirectionDegrees,WindSpeedMPH,WindSpeedGustMPH,Humidity,HourlyPrecipIn,Conditions,Clouds,dailyrainin,SoftwareType,DateUTC
2017-01-23 00:11:00,30.9,28.0,29.64,SSW,203,0.0,0.0,88,0.00,,,0.00,weatherlink.com 1.10,2017-01-23 08:11:00,
2017-01-23 00:26:00,30.9,28.0,29.63,NNE,13,0.0,1.0,89,0.00,,,0.00,weatherlink.com 1.10,2017-01-23 08:26:00,
2017-01-23 00:41:00,30.5,27.0,29.62,North,354,0.0,1.0,88,0.00,,,0.00,weatherlink.com 1.10,2017-01-23 08:41:00,
2017-01-23 00:56:00,30.2,27.0,29.62,NW,326,1.0,3.0,89,0.00,,,0.00,weatherlink.com 1.10,2017-01-23 08:56:00,
2017-01-23 01:11:00,30.0,27.0,29.63,West,281,0.0,0.0,89,0.00,,,0.00,weatherlink.com 1.10,2017-01-23 09:11:00,
2017-01-23 01:26:00,29.7,27.0,29.64,South,188,1.0,1.0,89,0.00,,,0.00,weatherlink.com 1.10,2017-01-23 09:26:00,
2017-01-23 01:41:00,29.6,27.0,29.65,SSW,203,1.0,3.0,89,0.00,,,0.00,weatherlink.com 1.10,2017-01-23 09:41:00,
2017-01-23 01:56:00,29.8,27.0,29.66,SW,217,0.0,2.0,89,0.00,,,0.00,weatherlink.com 1.10,2017-01-23 09:56:00,
2017-01-23 02:11:00,29.9,27.0,29.67,SW,222,0.0,0.0,89,0.00,,,0.00,weatherlink.com 1.10,2017-01-23 10:11:00,
2017-01-23 02:27:00,29.8,27.0,29.68,SW,222,0.0,0.0,89,0.00,,,0.00,weatherlink.com 1.10,2017-01-23 10:27:00,
2017-01-23 02:42:00,29.5,27.0,29.68,SSE,160,0.0,1.0,89,0.00,,,0.00,weatherlink.com 1.10,2017-01-23 10:42:00,
2017-01-23 02:57:00,29.5,27.0,29.69,SW,217,0.0,2.0,89,0.00,,,0.00,weatherlink.com 1.10,2017-01-23 10:57:00,
2017-01-23 03:12:00,29.6,27.0,29.69,SE,145,0.0,3.0,89,0.00,,,0.00,weatherlink.com 1.10,2017-01-23 11:12:00,
2017-01-23 03:27:00,29.6,27.0,29.69,NW,309,0.0,2.0,89,0.00,,,0.00,weatherlink.com 1.10,2017-01-23 11:27:00,
2017-01-23 03:42:00,30.1,27.0,29.69,ESE,114,2.0,2.0,89,0.00,,,0.00,weatherlink.com 1.10,2017-01-23 11:42:00,
2017-01-23 03:57:00,30.0,27.0,29.70,NW,308,0.0,0.0,89,0.00,,,0.00,weatherlink.com 1.10,2017-01-23 11:57:00,
2017-01-23 04:12:00,30.1,27.0,29.70,NNE,30,0.0,1.0,89,0.00,,,0.00,weatherlink.com 1.10,2017-01-23 12:12:00,
2017-01-23 04:27:00,30.4,28.0,29.71,NNE,16,0.0,1.0,89,0.00,,,0.00,weatherlink.com 1.10,2017-01-23 12:27:00,
2017-01-23 04:42:00,30.2,27.0,29.70,SE,126,0.0,1.0,89,0.00,,,0.00,weatherlink.com 1.10,2017-01-23 12:42:00,
2017-01-23 04:57:00,29.7,27.0,29.70,ESE,123,0.0,1.0,88,0.00,,,0.00,weatherlink.com 1.10,2017-01-23 12:57:00,
2017-01-23 05:12:00,29.3,26.0,29.71,NNE,18,1.0,1.0,88,0.00,,,0.00,weatherlink.com 1.10,2017-01-23 13:12:00,
2017-01-23 05:27:00,29.0,26.0,29.70,ESE,111,0.0,1.0,88,0.00,,,0.00,weatherlink.com 1.10,2017-01-23 13:27:00,
2017-01-23 05:42:00,28.9,26.0,29.71,NE,36,0.0,1.0,89,0.00,,,0.00,weatherlink.com 1.10,2017-01-23 13:42:00,
2017-01-23 05:57:00,28.8,26.0,29.70,ESE,110,0.0,1.0,89,0.00,,,0.00,weatherlink.com 1.10,2017-01-23 13:57:00,
2017-01-23 06:12:00,28.9,26.0,29.70,NE,51,0.0,1.0,89,0.00,,,0.00,weatherlink.com 1.10,2017-01-23 14:12:00,
2017-01-23 06:27:00,29.1,26.0,29.70,NNE,32,1.0,1.0,89,0.00,,,0.00,weatherlink.com 1.10,2017-01-23 14:27:00,
2017-01-23 06:42:00,29.3,27.0,29.71,SE,146,0.0,2.0,89,0.00,,,0.00,weatherlink.com 1.10,2017-01-23 14:42:00,
2017-01-23 06:57:00,29.3,27.0,29.71,NE,46,0.0,1.0,89,0.00,,,0.00,weatherlink.com 1.10,2017-01-23 14:57:00,
2017-01-23 07:12:00,28.9,26.0,29.72,NW,322,0.0,0.0,89,0.00,,,0.00,weatherlink.com 1.10,2017-01-23 15:12:00,
2017-01-23 07:27:00,27.8,25.0,29.73,South,173,0.0,0.0,89,0.00,,,0.00,weatherlink.com 1.10,2017-01-23 15:27:00,
2017-01-23 07:42:00,27.3,25.0,29.74,SW,217,0.0,1.0,89,0.00,,,0.00,weatherlink.com 1.10,2017-01-23 15:42:00,
2017-01-23 07:57:00,27.3,25.0,29.75,SW,226,0.0,1.0,89,0.00,,,0.00,weatherlink.com 1.10,2017-01-23 15:57:00,
2017-01-23 08:12:00,27.5,25.0,29.75,SE,135,2.0,3.0,89,0.00,,,0.00,weatherlink.com 1.10,2017-01-23 16:12:00,
2017-01-23 08:27:00,27.5,24.0,29.76,ESE,110,0.0,1.0,88,0.00,,,0.00,weatherlink.com 1.10,2017-01-23 16:27:00,
2017-01-23 08:42:00,27.5,24.0,29.76,ESE,113,0.0,0.0,88,0.00,,,0.00,weatherlink.com 1.10,2017-01-23 16:42:00,
2017-01-23 08:57:00,27.9,25.0,29.76,ENE,62,0.0,2.0,88,0.00,,,0.00,weatherlink.com 1.10,2017-01-23 16:57:00,
2017-01-23 09:12:00,28.4,25.0,29.76,SSE,161,0.0,1.0,88,0.00,,,0.00,weatherlink.com 1.10,2017-01-23 17:12:00,
2017-01-23 09:27:00,28.7,26.0,29.77,SSE,160,0.0,0.0,88,0.00,,,0.00,weatherlink.com 1.10,2017-01-23 17:27:00,
2017-01-23 09:42:00,29.0,26.0,29.77,SE,124,0.0,0.0,88,0.00,,,0.00,weatherlink.com 1.10,2017-01-23 17:42:00,
2017-01-23 09:57:00,29.0,26.0,29.77,SSW,204,0.0,2.0,88,0.00,,,0.00,weatherlink.com 1.10,2017-01-23 17:57:00,
2017-01-23 10:12:00,29.4,26.0,29.77,SE,143,0.0,1.0,88,0.00,,,0.00,weatherlink.com 1.10,2017-01-23 18:12:00,
2017-01-23 10:27:00,29.1,26.0,29.77,ESE,117,0.0,2.0,88,0.00,,,0.00,weatherlink.com 1.10,2017-01-23 18:27:00,
2017-01-23 10:42:00,30.2,27.0,29.78,SE,125,0.0,1.0,88,0.00,,,0.00,weatherlink.com 1.10,2017-01-23 18:42:00,
2017-01-23 10:57:00,30.1,27.0,29.78,West,274,0.0,1.0,88,0.00,,,0.00,weatherlink.com 1.10,2017-01-23 18:57:00,
2017-01-23 11:12:00,30.1,27.0,29.78,West,263,0.0,1.0,88,0.00,,,0.00,weatherlink.com 1.10,2017-01-23 19:12:00,
2017-01-23 11:27:00,30.2,27.0,29.77,WNW,283,0.0,1.0,88,0.00,,,0.00,weatherlink.com 1.10,2017-01-23 19:27:00,
2017-01-23 11:42:00,30.7,28.0,29.78,WSW,240,0.0,0.0,88,0.00,,,0.00,weatherlink.com 1.10,2017-01-23 19:42:00,
2017-01-23 11:57:00,31.3,28.0,29.78,SSE,165,0.0,0.0,88,0.00,,,0.00,weatherlink.com 1.10,2017-01-23 19:57:00,
2017-01-23 12:12:00,31.3,28.0,29.78,WSW,242,0.0,1.0,87,0.00,,,0.00,weatherlink.com 1.10,2017-01-23 20:12:00,
2017-01-23 12:27:00,30.9,28.0,29.78,WSW,248,0.0,0.0,87,0.00,,,0.00,weatherlink.com 1.10,2017-01-23 20:27:00,
2017-01-23 12:42:00,31.0,28.0,29.78,WSW,248,0.0,1.0,87,0.00,,,0.00,weatherlink.com 1.10,2017-01-23 20:42:00,
2017-01-23 12:57:00,30.8,28.0,29.78,WSW,253,0.0,1.0,88,0.00,,,0.00,weatherlink.com 1.10,2017-01-23 20:57:00,
2017-01-23 13:12:00,30.9,28.0,29.78,WSW,255,0.0,1.0,88,0.00,,,0.00,weatherlink.com 1.10,2017-01-23 21:12:00,
2017-01-23 13:28:00,31.3,28.0,29.78,WSW,255,0.0,0.0,88,0.00,,,0.00,weatherlink.com 1.10,2017-01-23 21:28:00,
2017-01-23 13:43:00,31.5,28.0,29.78,NW,312,0.0,0.0,88,0.00,,,0.00,weatherlink.com 1.10,2017-01-23 21:43:00,
2017-01-23 13:57:00,31.8,29.0,29.78,NW,312,0.0,1.0,88,0.00,,,0.00,weatherlink.com 1.10,2017-01-23 21:57:00,
2017-01-23 14:13:00,31.6,29.0,29.79,WNW,294,0.0,3.0,88,0.00,,,0.00,weatherlink.com 1.10,2017-01-23 22:13:00,
2017-01-23 14:27:00,31.8,29.0,29.79,NNW,328,1.0,2.0,88,0.00,,,0.00,weatherlink.com 1.10,2017-01-23 22:27:00,
2017-01-23 14:43:00,32.1,29.0,29.79,NNW,328,1.0,1.0,88,0.00,,,0.00,weatherlink.com 1.10,2017-01-23 22:43:00,
2017-01-23 14:58:00,32.1,29.0,29.80,NNE,15,0.0,2.0,88,0.00,,,0.00,weatherlink.com 1.10,2017-01-23 22:58:00,
2017-01-23 15:13:00,32.0,29.0,29.80,NW,314,0.0,1.0,88,0.00,,,0.00,weatherlink.com 1.10,2017-01-23 23:13:00,
2017-01-23 15:28:00,31.9,29.0,29.81,NW,314,0.0,0.0,88,0.00,,,0.00,weatherlink.com 1.10,2017-01-23 23:28:00,
2017-01-23 15:43:00,31.5,28.0,29.81,NW,314,0.0,0.0,88,0.00,,,0.00,weatherlink.com 1.10,2017-01-23 23:43:00,
2017-01-23 15:58:00,31.1,28.0,29.81,NW,314,0.0,1.0,88,0.00,,,0.00,weatherlink.com 1.10,2017-01-23 23:58:00,
2017-01-23 16:13:00,30.6,28.0,29.82,South,174,0.0,2.0,88,0.00,,,0.00,weatherlink.com 1.10,2017-01-24 00:13:00,
2017-01-23 16:28:00,30.3,27.0,29.82,SSW,200,0.0,2.0,88,0.00,,,0.00,weatherlink.com 1.10,2017-01-24 00:28:00,
2017-01-23 16:43:00,30.0,27.0,29.83,SSW,203,0.0,0.0,88,0.00,,,0.00,weatherlink.com 1.10,2017-01-24 00:43:00,
2017-01-23 16:58:00,29.7,27.0,29.83,SSW,207,0.0,1.0,88,0.00,,,0.00,weatherlink.com 1.10,2017-01-24 00:58:00,
2017-01-23 17:13:00,29.6,27.0,29.83,SSE,155,1.0,2.0,88,0.00,,,0.00,weatherlink.com 1.10,2017-01-24 01:13:00,
2017-01-23 17:28:00,29.6,27.0,29.83,SE,138,1.0,3.0,89,0.00,,,0.00,weatherlink.com 1.10,2017-01-24 01:28:00,
2017-01-23 17:44:00,29.5,27.0,29.84,SE,139,0.0,0.0,89,0.00,,,0.00,weatherlink.com 1.10,2017-01-24 01:44:00,
2017-01-23 17:58:00,29.9,27.0,29.84,SE,139,0.0,0.0,89,0.00,,,0.00,weatherlink.com 1.10,2017-01-24 01:58:00,
2017-01-23 18:13:00,30.2,27.0,29.85,SE,139,0.0,0.0,89,0.00,,,0.00,weatherlink.com 1.10,2017-01-24 02:13:00,